Location: Fontenille
(45.2500°N, 2.2333°E)
Time: 04:32:56
(UTC+00:00)

Daily predictions for brighter satellites

Satellite Brightness Start Highest point End
(mag) Time Altitude Azimuth Time Altitude Azimuth Time Altitude Azimuth
ATLAS CENTAUR R/B 3.9 00:07:30 15° WSW 00:12:17 70° NNW 00:27:08 10° NE
Cosmos 1825 3.5 00:13:02 27° ESE 00:13:24 28° E 00:16:39 10° NNE
Cosmos 1812 Rocket 4.1 00:14:41 10° NNW 00:18:50 44° W 00:19:25 41° WSW
Cosmos 1408 2.7 00:19:18 58° ESE 00:19:25 59° E 00:23:04 10° NNE
Cosmos 990 Rocket 4.2 00:15:12 10° NNW 00:20:23 66° ENE 00:22:37 33° SE
SL-16 R/B 2.7 00:19:56 28° SW 00:22:45 54° WNW 00:28:19 10° NNE
Cosmos 405 Rocket 3.3 00:23:36 42° ESE 00:23:49 42° E 00:27:19 10° NNE
Cosmos 2058 4.1 00:24:22 28° ESE 00:25:13 31° E 00:28:50 10° NNE
USA 229 DEB 3.5 00:22:35 37° SSW 00:25:19 77° SE 00:32:09 10° NE
USA 229 3.5 00:22:42 37° SSW 00:25:26 76° ESE 00:32:15 10° NE
Cosmos 1656 Rocket 4.5 00:20:23 10° NNW 00:25:55 48° ENE 00:30:16 16° SE
Cosmos 2237 Rocket 4.2 00:21:54 10° W 00:26:13 22° NW 00:30:34 10° N
Cosmos 2221 4.0 00:22:41 10° NNE 00:26:29 30° ENE 00:28:24 21° ESE
X-37B 2.6 00:28:47 21° E 00:28:47 21° E 00:29:59 10° E
Cosmos 1898 Rocket 3.7 00:28:28 10° NNW 00:33:42 69° ENE 00:36:10 31° SE
NOSS 8 (F) 4.5 00:33:59 61° NW 00:33:59 61° NW 00:36:52 10° NNE
Cosmos 1937 Rocket 4.2 00:28:45 10° NNW 00:33:58 51° ENE 00:37:19 21° SE
NOSS 3-1 (C) 3.6 00:31:10 27° WSW 00:34:09 63° NW 00:40:26 10° NE
Cosmos 2369 Rocket 2.2 00:30:22 10° NNW 00:36:08 85° ENE 00:38:58 31° SSE
Cosmos 1356 3.3 00:37:30 81° WNW 00:37:30 81° WNW 00:40:51 10° N
SJ 16-02 2.3 00:35:55 10° NW 00:39:49 32° W 00:40:01 32° WSW
GP-B 4.2 00:36:52 10° NNW 00:40:48 32° W 00:41:51 28° WSW
NOSS 2-3 (E) 4.1 00:42:31 32° WSW 00:44:11 54° NW 00:48:58 10° NNE
NOSS 3-1 (A) 3.2 00:42:41 37° SW 00:45:01 86° NW 00:51:20 10° NE
USA 215 4.3 00:40:27 10° NE 00:46:32 43° NNW 00:52:38 10° W
Cosmos 1825 Rocket 4.0 00:45:41 41° WSW 00:46:46 50° WNW 00:51:07 10° N
ATLAS 5 CENTAUR R/B 3.1 00:48:04 19° ESE 00:48:21 19° ESE 00:51:20 10° ENE
Cosmos 2263 4.2 00:44:05 10° NNW 00:49:48 81° ENE 00:53:06 26° SSE
CZ-4 R/B 3.8 00:47:24 10° NNE 00:52:04 71° ESE 00:53:33 43° S
Helios 1B rocket 4.3 00:49:29 10° NE 00:52:37 21° E 00:54:08 17° ESE
USA 308 4.0 00:53:27 29° SE 00:53:27 29° SE 00:57:02 10° ENE
Cosmos 1633 4.3 00:53:22 20° ESE 00:54:18 22° E 00:57:04 10° NE
Cosmos 1932 4.4 00:48:47 10° NW 00:55:03 86° NE 01:00:03 17° SE
Meteor 2-2 Rocket 4.4 00:50:49 10° N 00:56:54 83° E 01:00:07 30° SSE
NOSS 8 (H) 4.5 01:00:24 54° WNW 01:00:35 56° NW 01:03:30 10° NNE
Helios 1A 2.9 01:00:06 47° SSE 01:01:17 88° WSW 01:05:30 10° NNW
Cosmos 1606 3.7 00:58:58 10° N 01:02:38 41° ENE 01:04:12 27° SE
Cosmos 468 Rocket 4.2 01:00:57 36° SW 01:03:00 64° WNW 01:08:13 10° NNE
SL-16 R/B 3.1 00:59:52 14° SE 01:05:07 56° ENE 01:11:08 10° N
Cosmos 372 Rocket 4.5 01:03:47 10° NNW 01:08:58 59° ENE 01:13:10 16° SE
USA 305 3.3 01:10:32 40° SSE 01:11:05 43° SE 01:15:07 10° ENE
Cosmos 858 Rocket 4.4 01:06:05 10° NNW 01:11:23 83° WSW 01:14:06 30° SSE
USA 290 3.7 01:11:15 26° ESE 01:11:35 27° ESE 01:14:22 10° NE
Cosmos 1953 Rocket 4.3 01:10:29 33° WSW 01:11:43 42° WNW 01:15:55 10° N
Cosmos 1092 Rocket 4.3 01:11:05 24° SSE 01:14:42 57° E 01:20:43 10° NNE
Lacrosse 4 Rocket 2.8 01:11:09 10° NNW 01:14:58 36° NE 01:18:43 10° ESE
Cosmos 2098 Rocket 3.4 01:15:08 34° S 01:17:34 89° E 01:22:06 10° N
Cosmos 1763 Rocket 4.0 01:15:44 29° WSW 01:18:00 48° WNW 01:22:59 10° NNE
BREEZE-M R/B 3.0 01:18:11 37° SSE 01:18:40 39° SE 01:22:46 10° ENE
USA 267 3.9 01:19:19 29° SSW 01:20:42 31° SW 01:26:23 10° WNW
Resurs 1-4 Rocket 2.3 01:16:20 10° NNE 01:21:39 64° ESE 01:24:23 29° S
Cosmos 1437 Rocket 2.9 01:17:51 10° NNW 01:21:39 53° W 01:22:18 46° SW
Cosmos 1892 4.5 01:21:02 19° W 01:21:59 21° WNW 01:24:59 10° NNW
OE (NEXTSAT) 4.2 01:22:34 45° W 01:23:32 89° N 01:26:59 10° E
SL-4 R/B 3.7 01:21:49 10° WNW 01:25:10 29° N 01:28:20 10° ENE
Cosmos 1943 Rocket 3.6 01:25:03 10° WNW 01:28:48 19° W 01:29:32 18° WSW
NOSS 2-2 (D) 3.4 01:30:21 40° SSE 01:31:00 47° ESE 01:34:28 10° NE
Cosmos 1842 Rocket 3.7 01:27:29 10° NNW 01:31:46 57° W 01:33:14 37° SSW
NPP 3.9 01:27:27 10° NNE 01:32:50 64° ESE 01:35:57 25° S
ADEOS II 3.1 01:28:18 10° NNE 01:33:12 38° E 01:36:50 17° SSE
USA 306 2.9 01:32:05 40° SSW 01:33:25 62° SE 01:37:37 10° ENE
Cosmos 921 Rocket 2.8 01:32:38 39° SSW 01:34:09 86° WNW 01:38:22 10° NNE
Exosat Rocket 4.5 01:30:27 22° SW 01:34:18 47° WNW 01:39:23 10° NNE
Lacrosse 5 rocket 4.2 01:31:54 10° NNW 01:34:23 17° NNE 01:36:52 10° ENE
Meteor 2-8 Rocket 4.5 01:29:09 10° NNW 01:35:15 69° W 01:38:53 26° S
FALCON 9 DEB 3.4 01:32:51 10° NW 01:36:15 69° NNE 01:39:37 10° ESE
Cosmos 1943 3.6 01:33:25 26° SW 01:36:30 56° WNW 01:42:04 10° NNE
MOZ.5/SAFIR/RUBIN 5/SL-8 4.2 01:38:05 32° SSW 01:39:48 46° W 01:44:24 10° NNW
CZ-2D R/B 2.0 01:35:08 10° NNE 01:40:23 89° ESE 01:43:15 28° SSW
Cosmos 1603 4.3 01:41:52 22° WSW 01:45:16 47° WNW 01:50:44 10° NNE
Cosmos 2151 3.1 01:44:56 27° S 01:47:07 67° E 01:51:18 10° NNE
IDEFIX/ARIANE 42P 4.2 01:43:03 10° NE 01:47:31 28° E 01:51:56 10° SSE
Cosmos 1825 3.9 01:47:48 18° W 01:48:53 21° WNW 01:51:47 10° NNW
Cosmos 1076 Rocket 3.6 01:49:45 32° SSW 01:51:34 61° W 01:55:47 10° N
AQUA 3.9 01:47:38 10° NNE 01:52:26 77° ESE 01:55:17 24° S
Cosmos 1437 2.5 01:52:51 10° NNW 01:55:35 52° W 01:55:51 49° WSW
Cosmos 540 Rocket 4.3 01:55:00 21° WSW 01:57:54 39° WNW 02:02:43 10° N
Cosmos 1242 Rocket 3.4 01:56:03 10° NNW 01:59:17 32° W 02:00:05 29° WSW
DELTA 2 R/B (1) 3.8 01:57:41 19° WSW 02:01:20 47° S 02:06:38 10° ESE
X-37B 0.4 02:01:04 17° W 02:03:26 75° S 02:06:36 10° ESE
Cosmos 2221 3.8 02:00:24 10° NNW 02:03:54 25° W 02:05:13 21° WSW
BREEZE-M DEB (TANK) 2.8 02:03:25 10° WNW 02:05:51 37° N 02:08:05 10° E
Cosmos 841 Rocket 4.3 02:03:07 20° WSW 02:06:13 40° WNW 02:11:04 10° N
IRS-1D 3.9 02:02:09 10° NNE 02:07:14 58° E 02:11:14 16° S
NOSS 2-2 (E) 3.6 02:08:03 24° WSW 02:09:51 49° NW 02:13:34 10° NNE
Cosmos 1553 Rocket 4.1 02:04:30 10° N 02:10:50 77° E 02:17:01 10° SSE
Cosmos 2292 Rocket 2.8 02:09:52 25° S 02:11:24 64° E 02:14:20 10° NNE
FALCON 9 DEB 4.4 02:12:09 10° NW 02:15:07 39° NNE 02:18:05 10° E
GPS 2-04 Rocket1 4.1 02:15:42 20° S 02:15:49 20° S 02:18:44 10° SE
USA 307 3.0 02:14:11 19° WSW 02:17:08 72° NNW 02:21:24 10° NE
Cosmos 1782 3.2 02:13:24 10° N 02:17:23 63° E 02:21:22 10° SSE
USA 281 3.7 02:11:14 10° SE 02:17:41 62° ENE 02:24:09 10° NNW
Cosmos 1271 Rocket 3.9 02:15:42 10° N 02:19:15 41° ENE 02:22:49 10° SSE
Cosmos 2369 Rocket 3.9 02:16:17 10° WNW 02:19:21 15° W 02:20:43 14° WSW
Cosmos 2026 Rocket 4.2 02:16:00 19° SSW 02:20:29 59° WNW 02:26:46 10° N
NOSS 2-2 (C) 3.7 02:21:26 20° WSW 02:23:32 47° NW 02:27:10 10° NNE
CZ-4C R/B 3.9 02:21:32 10° SSE 02:24:53 48° ENE 02:28:14 10° N
Aureole 3 Rocket 4.2 02:22:07 10° NNW 02:25:43 30° W 02:28:38 18° SW
ERBS 3.0 02:24:39 22° S 02:26:15 39° SE 02:29:18 10° ENE
Helios 1B rocket 3.3 02:24:12 10° N 02:27:56 35° WNW 02:30:26 18° SW
Cosmos 1633 4.1 02:27:25 17° WSW 02:28:57 22° WNW 02:31:48 10° NNW
Cosmos 1328 Rocket 4.0 02:27:04 10° N 02:31:24 62° E 02:35:44 10° SSE
FALCON 9 DEB 3.2 02:29:04 10° NW 02:32:08 66° NNE 02:35:11 10° ESE
ATLAS 5 CENTAUR R/B 2.1 02:29:34 16° WSW 02:32:29 46° NW 02:36:48 10° NNE
SL-19 R/B 4.5 02:27:29 10° N 02:32:37 54° WNW 02:36:50 16° SW
USA 308 3.3 02:29:31 14° WSW 02:33:07 58° NNW 02:37:20 10° NE
Cosmos 2298 Rocket 4.1 02:28:59 10° NNW 02:34:15 61° WSW 02:39:29 10° S
SeaSat 1 3.2 02:31:52 10° NE 02:36:39 47° ESE 02:41:19 10° S
FALCON 9 DEB 3.5 02:35:55 10° NW 02:39:01 60° NNE 02:42:05 10° ESE
ADEOS Rocket 3.5 02:33:18 10° S 02:40:30 57° W 02:47:04 10° NNW
Meteor 2-21 4.5 02:36:14 12° SSW 02:42:00 80° W 02:48:14 10° N
FALCON 9 DEB 3.0 02:39:19 10° NW 02:42:25 76° NNE 02:45:30 10° ESE
Cosmos 1933 4.1 02:40:48 10° NNW 02:44:32 35° W 02:47:30 15° SSW
IRIDIUM 104 4.5 02:39:51 10° N 02:44:59 59° W 02:50:05 10° SSW
Cosmos 2150 Rocket 4.2 02:40:43 10° NNW 02:45:45 52° WSW 02:50:50 10° S
USA 290 4.3 02:44:01 11° W 02:46:02 17° WNW 02:48:17 10° NNW
Cosmos 1833 Rocket 4.2 02:42:08 10° SSE 02:47:03 32° ESE 02:51:59 10° NE
SL-16 R/B 3.6 02:44:57 14° SW 02:49:02 26° W 02:54:08 10° NW
Meteor 1-28 Rocket 3.6 02:45:49 12° S 02:49:11 45° W 02:52:52 10° NNW
DELTA 2 DEB (DPAF) 4.5 02:45:53 10° S 02:50:10 47° W 02:54:29 10° NNW
Tianhe-1 3.4 02:49:35 10° S 02:51:00 12° SSE 02:52:26 10° SE
USA 305 3.8 02:46:57 10° W 02:51:02 44° NNW 02:55:08 10° NE
IRS-P3 4.4 02:46:34 10° NNE 02:51:53 68° ESE 02:57:10 10° S
Lacrosse 4 Rocket 2.5 02:50:12 10° WNW 02:53:26 23° WSW 02:56:19 11° SSW
Cosmos 1125 Rocket 3.7 02:48:33 10° NNW 02:53:40 54° WSW 02:58:48 10° S
Cosmos 1151 Rocket 3.1 02:50:51 10° NNW 02:55:01 56° W 02:59:11 10° S
Cosmos 2266 Rocket 4.0 02:50:03 10° S 02:56:11 85° E 03:02:15 10° N
Meteor 1-29 4.4 02:55:12 10° NNW 02:58:02 25° WNW 03:00:31 12° WSW
CZ-4B R/B 4.1 02:54:25 10° NNE 02:59:40 60° ESE 03:04:47 10° S
ARIANE 5 R/B 2.9 02:55:50 10° NNE 03:00:48 64° ESE 03:05:46 10° S
Resurs 1-4 Rocket 3.8 02:57:10 10° NNW 03:00:58 20° WNW 03:04:47 10° WSW
OE (NEXTSAT) 4.3 02:57:38 10° W 03:01:05 84° N 03:04:32 10° E
CZ-4C R/B 2.4 02:56:32 10° SSW 03:01:09 60° ESE 03:06:50 10° NE
Cosmos 1515 Rocket 3.8 02:58:07 10° N 03:02:33 75° E 03:07:00 10° SSE
Cosmos 1766 Rocket 3.9 02:59:09 11° SSW 03:03:15 50° WNW 03:07:38 10° N
SL-4 R/B 2.6 03:01:43 10° NW 03:05:14 50° NNE 03:08:36 10° E
Cosmos 1408 Rocket 3.6 03:01:24 10° S 03:05:51 88° E 03:10:21 10° N
COSMOS 2441 4.4 03:04:00 10° NNE 03:08:52 89° ESE 03:13:40 10° SSW
USA 238 DEB 4.4 03:02:17 10° NW 03:09:31 68° NE 03:17:04 10° SE
USA 238 4.4 03:02:24 10° NW 03:09:38 67° NE 03:17:10 10° SE
Cosmos 2082 Rocket 4.2 03:05:36 10° SSE 03:09:59 24° ESE 03:14:24 10° NE
CENTAUR R/B 3.7 03:02:01 10° NW 03:10:05 69° NE 03:18:57 10° SE
ADEOS II 3.2 03:08:11 10° N 03:12:46 31° WNW 03:17:21 10° SW
Cosmos 1862 3.3 03:08:47 10° SSW 03:12:48 74° W 03:16:53 10° N
USA 306 4.2 03:09:37 10° W 03:13:34 36° NNW 03:17:31 10° NE
Lacrosse 5 rocket 1.6 03:10:28 10° NW 03:14:03 62° NE 03:17:45 10° ESE
Okean 3 Rocket 4.2 03:10:03 10° SW 03:14:11 39° WNW 03:18:19 10° N
CZ-2D R/B 4.1 03:16:57 10° NNW 03:19:42 15° WNW 03:22:27 10° W
ASTEX 1 3.9 03:19:18 10° SSW 03:23:58 41° W 03:28:38 10° NNW
Cosmos 1655 Rocket 4.3 03:18:10 10° SSW 03:24:12 53° WNW 03:30:20 10° N
IDEFIX/ARIANE 42P 3.2 03:22:18 10° N 03:27:13 41° WNW 03:32:04 10° SW
